Weather History for Albacete, Spain

Change the Weather History Date:

Tuesday, November 12, 2013

  Actual Average Record
Temperature  
Mean Temperature 52 °F -  
Max Temperature 66 °F - - ()
Min Temperature 37 °F - - ()
Degree Days  
Heating Degree Days 14    
Growing Degree Days 2 (Base 50)    
Moisture  
Dew Point 43 °F    
Average Humidity 75    
Maximum Humidity 100    
Minimum Humidity 45    
Precipitation  
Precipitation 0.00 in 0.05 in - ()
Sea Level Pressure  
Sea Level Pressure 30.19 in    
Wind  
Wind Speed 3 mph ()    
Max Wind Speed 7 mph    
Max Gust Speed -    
Visibility 19.0 miles    
Events      
T = Trace of Precipitation, MM = Missing Value Source: Averaged Metar Reports

Daily Weather History Graph

Daily Weather History Graph

Search for Another Location

Airport:

Trip Planner

Search our weather history database for the weather conditions in past years. The results will help you decide how hot, cold, wet, or windy it might be!

Date:

Astronomy

Nov. 12, 2013 Rise Set
Actual Time 7:46 AM CET 5:55 PM CET
Civil Twilight 7:18 AM CET 6:24 PM CET
Nautical Twilight 6:46 AM CET 6:56 PM CET
Astronomical Twilight 6:15 AM CET 7:27 PM CET
Moon 2:59 PM CET (11/12) 2:23 AM CET (11/12)
Length of Visible Light 11h 05m
Length of Day
10h 08m
Waxing Gibbous, 74% of the Moon is Illuminated
Nov 12
Waxing Gibbous
Nov 17
Full
Nov 25
Last Quarter
Dec 3
New
Dec 9
First Quarter

Hourly Weather History & Observations

Time (CET) Temp. Windchill Dew Point Humidity Pressure Visibility Wind Dir Wind Speed Gust Speed Precip Events Conditions
12:00 AM 48.2 °F - 42.8 °F 82% 30.21 in - WNW 4.6 mph - N/A   Clear
1:00 AM 50 °F - 42 °F 67% 30.23 in 19 mi 1.2 mph - -  
1:00 AM 46.4 °F - 42.8 °F 87% 30.21 in - Variable 1.2 mph - N/A   Clear
2:00 AM 44.6 °F 42.2 °F 41.0 °F 87% 30.21 in - WSW 4.6 mph - N/A   Clear
3:00 AM 42.8 °F 40.1 °F 41.0 °F 93% 30.21 in - WSW 4.6 mph - N/A   Clear
4:00 AM 42.8 °F 41.1 °F 39.2 °F 87% 30.21 in - West 3.5 mph - N/A   Clear
5:00 AM 39.2 °F - 37.4 °F 93% 30.21 in - West 2.3 mph - N/A   Clear
6:00 AM 39.2 °F 35.0 °F 37.4 °F 93% 30.18 in - SSW 5.8 mph - N/A   Clear
7:00 AM 40 °F - 38 °F 89% 30.25 in 19 mi SW 2.3 mph - -   Scattered Clouds
7:00 AM 37.4 °F - 37.4 °F 100% 30.18 in - SW 2.3 mph - N/A   Clear
8:00 AM 39.2 °F 35.9 °F 39.2 °F 100% 30.21 in - WSW 4.6 mph - N/A   Clear
9:00 AM 42.8 °F - 41.0 °F 93% 30.21 in - Variable 2.3 mph - N/A   Clear
10:00 AM 50.0 °F - 44.6 °F 82% 30.21 in - West 3.5 mph - N/A   Clear
11:00 AM 55.4 °F - 44.6 °F 67% 30.24 in - NW 3.5 mph - N/A   Clear
12:00 PM 59.0 °F - 46.4 °F 63% 30.21 in - North 4.6 mph - N/A   Clear
1:00 PM 60 °F - 44 °F 45% 30.15 in 25 mi WNW 4.6 mph - -   Scattered Clouds
1:00 PM 60.8 °F - 46.4 °F 59% 30.18 in - WNW 4.6 mph - N/A   Clear
2:00 PM 62.6 °F - 46.4 °F 55% 30.18 in - NNW 5.8 mph - N/A   Clear
3:00 PM 64.4 °F - 46.4 °F 52% 30.15 in - WNW 4.6 mph - N/A   Clear
4:00 PM 66.2 °F - 46.4 °F 49% 30.15 in - NW 6.9 mph - N/A   Clear
5:00 PM 64.4 °F - 46.4 °F 52% 30.15 in - North 4.6 mph - N/A   Clear
6:00 PM 60.8 °F - 46.4 °F 59% 30.15 in - WNW 2.3 mph - N/A   Clear
7:00 PM 57 °F - 46 °F 57% 30.13 in 19 mi SW 2.3 mph - -  
7:00 PM 57.2 °F - 46.4 °F 67% 30.15 in - SW 2.3 mph - N/A   Clear
8:00 PM 50.0 °F - 44.6 °F 82% 30.15 in - SSW 3.5 mph - N/A   Clear
9:00 PM 50.0 °F - 42.8 °F 76% 30.15 in - South 4.6 mph - N/A   Clear
10:00 PM 46.4 °F 44.3 °F 41.0 °F 81% 30.18 in - SE 4.6 mph - N/A   Clear
11:00 PM 46.4 °F 45.2 °F 41.0 °F 81% 30.18 in - ENE 3.5 mph - N/A   Clear